When you browse on this site, cookies collect data to enhance your experience and personalize the content and advertising you see.
Visit our Privacy Policy to learn more. By continuing to use the site, you agree to this use of cookies and data.
  • In Latvia
  • List of Countries
  • For 7 days
  • Water Temperature
  • Weather Map
  • Weather Widgets
  • user-avatar
    Login

    Hourly Weather Kamennaya Balka

    Today, 22 August, Thursday

    Time Temperature Precipitation Wind Pressure Humidity
    00:00 +29°C° 0 mm 6 mps 752 mmHg 37%
    01:00 +28°C° 0 mm 5 mps 752 mmHg 39%
    02:00 +27°C° 0 mm 5 mps 752 mmHg 42%
    03:00 +26°C° 0 mm 4 mps 753 mmHg 44%
    04:00 +26°C° 0 mm 4 mps 753 mmHg 46%
    05:00 +26°C° 0 mm 4 mps 752 mmHg 48%
    06:00 +25°C° 0 mm 4 mps 752 mmHg 51%
    07:00 +27°C° 0 mm 4 mps 753 mmHg 46%
    08:00 +30°C° 0 mm 4 mps 753 mmHg 41%
    09:00 +33°C° 0 mm 5 mps 753 mmHg 37%
    10:00 +35°C° 0 mm 5 mps 753 mmHg 31%
    11:00 +37°C° 0 mm 5 mps 753 mmHg 26%
    12:00 +40°C° 0 mm 5 mps 752 mmHg 21%
    13:00 +40°C° 0 mm 5 mps 752 mmHg 20%
    14:00 +41°C° 0 mm 5 mps 752 mmHg 19%
    15:00 +41°C° 0 mm 5 mps 752 mmHg 18%
    16:00 +40°C° 0 mm 5 mps 752 mmHg 20%
    17:00 +39°C° 0 mm 5 mps 752 mmHg 22%
    18:00 +37°C° 0 mm 4 mps 751 mmHg 24%
    19:00 +36°C° 0 mm 5 mps 752 mmHg 28%
    20:00 +34°C° 0 mm 5 mps 752 mmHg 32%
    21:00 +32°C° 0 mm 6 mps 752 mmHg 37%
    22:00 +30°C° 0 mm 6 mps 752 mmHg 37%
    23:00 +30°C° 0 mm 5 mps 752 mmHg 37%

    Tomorrow, 23 August, Friday

    Time Temperature Precipitation Wind Pressure Humidity
    00:00 +29°C° 0 mm 5 mps 752 mmHg 37%
    01:00 +29°C° 0 mm 5 mps 753 mmHg 38%
    02:00 +28°C° 0 mm 5 mps 753 mmHg 40%
    03:00 +28°C° 0 mm 4 mps 753 mmHg 41%
    04:00 +27°C° 0 mm 4 mps 753 mmHg 42%
    05:00 +27°C° 0 mm 4 mps 753 mmHg 44%
    06:00 +26°C° 0 mm 4 mps 753 mmHg 45%
    07:00 +28°C° 0 mm 5 mps 753 mmHg 42%
    08:00 +30°C° 0 mm 5 mps 753 mmHg 38%
    09:00 +32°C° 0 mm 5 mps 753 mmHg 34%
    10:00 +34°C° 0 mm 6 mps 753 mmHg 30%
    11:00 +36°C° 0 mm 6 mps 753 mmHg 26%
    12:00 +39°C° 0 mm 6 mps 753 mmHg 22%
    13:00 +40°C° 0 mm 5 mps 753 mmHg 20%
    14:00 +40°C° 0 mm 5 mps 753 mmHg 18%
    15:00 +41°C° 0 mm 4 mps 752 mmHg 17%
    16:00 +40°C° 0 mm 4 mps 752 mmHg 19%
    17:00 +37°C° 0 mm 4 mps 752 mmHg 22%
    18:00 +36°C° 0 mm 4 mps 752 mmHg 24%
    19:00 +35°C° 0 mm 5 mps 752 mmHg 27%
    20:00 +33°C° 0 mm 5 mps 753 mmHg 31%
    21:00 +32°C° 0 mm 6 mps 753 mmHg 34%
    22:00 +30°C° 0 mm 6 mps 753 mmHg 35%
    23:00 +30°C° 0 mm 6 mps 753 mmHg 35%

    Day after tomorrow, 24 August, Saturday

    Time Temperature Precipitation Wind Pressure Humidity
    00:00 +29°C° 0 mm 6 mps 752 mmHg 36%
    01:00 +29°C° 0 mm 6 mps 752 mmHg 37%
    02:00 +28°C° 0 mm 6 mps 752 mmHg 38%
    03:00 +28°C° 0 mm 5 mps 752 mmHg 39%
    04:00 +27°C° 0 mm 5 mps 752 mmHg 41%
    05:00 +27°C° 0 mm 5 mps 752 mmHg 43%
    06:00 +27°C° 0 mm 6 mps 752 mmHg 45%
    07:00 +28°C° 0 mm 5 mps 752 mmHg 41%
    08:00 +29°C° 0 mm 5 mps 753 mmHg 38%
    09:00 +32°C° 0 mm 5 mps 753 mmHg 35%
    10:00 +34°C° 0 mm 5 mps 753 mmHg 30%
    11:00 +36°C° 0 mm 5 mps 752 mmHg 25%
    12:00 +40°C° 0 mm 4 mps 752 mmHg 20%
    13:00 +40°C° 0 mm 5 mps 752 mmHg 19%
    14:00 +41°C° 0 mm 5 mps 752 mmHg 18%
    15:00 +41°C° 0 mm 6 mps 752 mmHg 16%
    16:00 +40°C° 0 mm 5 mps 751 mmHg 18%
    17:00 +39°C° 0 mm 5 mps 751 mmHg 20%
    18:00 +37°C° 0 mm 4 mps 751 mmHg 21%
    19:00 +36°C° 0 mm 4 mps 751 mmHg 23%
    20:00 +35°C° 0 mm 5 mps 751 mmHg 25%
    21:00 +33°C° 0 mm 5 mps 751 mmHg 28%
    22:00 +33°C° 0 mm 5 mps 751 mmHg 30%
    23:00 +32°C° 0 mm 5 mps 751 mmHg 32%

    25 August, Sunday

    Time Temperature Precipitation Wind Pressure Humidity
    00:00 +32°C° 0 mm 5 mps 751 mmHg 33%
    01:00 +30°C° 0 mm 4 mps 751 mmHg 35%
    02:00 +29°C° 0 mm 4 mps 751 mmHg 37%
    03:00 +28°C° 0 mm 3 mps 751 mmHg 39%
    04:00 +27°C° 0 mm 3 mps 751 mmHg 40%
    05:00 +27°C° 0 mm 3 mps 751 mmHg 41%
    06:00 +27°C° 0 mm 3 mps 751 mmHg 42%
    07:00 +28°C° 0 mm 4 mps 752 mmHg 42%
    08:00 +29°C° 0 mm 4 mps 752 mmHg 42%
    09:00 +30°C° 0 mm 5 mps 752 mmHg 42%
    10:00 +30°C° 0.1 mm 4 mps 752 mmHg 43%
    11:00 +30°C° 0.1 mm 4 mps 752 mmHg 45%
    12:00 +30°C° 0.1 mm 4 mps 752 mmHg 47%
    13:00 +30°C° 0.1 mm 4 mps 752 mmHg 48%
    14:00 +29°C° 0.1 mm 4 mps 752 mmHg 49%
    15:00 +29°C° 0.1 mm 4 mps 752 mmHg 49%
    16:00 +28°C° 0.6 mm 5 mps 752 mmHg 53%
    17:00 +27°C° 0.6 mm 6 mps 752 mmHg 57%
    18:00 +24°C° 0.6 mm 7 mps 752 mmHg 61%
    19:00 +24°C° 0.3 mm 6 mps 752 mmHg 61%
    20:00 +23°C° 0.3 mm 5 mps 752 mmHg 62%
    21:00 +23°C° 0.3 mm 4 mps 752 mmHg 62%
    22:00 +23°C° 0.2 mm 5 mps 752 mmHg 61%
    23:00 +23°C° 0.2 mm 6 mps 752 mmHg 61%

    26 August, Monday

    Time Temperature Precipitation Wind Pressure Humidity
    00:00 +23°C° 0.2 mm 6 mps 753 mmHg 61%
    01:00 +23°C° 0 mm 7 mps 753 mmHg 61%
    02:00 +23°C° 0 mm 8 mps 753 mmHg 62%
    03:00 +23°C° 0 mm 9 mps 753 mmHg 63%
    04:00 +23°C° 0 mm 8 mps 753 mmHg 63%
    05:00 +23°C° 0 mm 8 mps 753 mmHg 63%
    06:00 +23°C° 0 mm 7 mps 754 mmHg 64%
    07:00 +23°C° 0 mm 7 mps 754 mmHg 61%
    08:00 +24°C° 0 mm 8 mps 755 mmHg 58%
    09:00 +26°C° 0 mm 8 mps 755 mmHg 55%
    10:00 +27°C° 0 mm 8 mps 755 mmHg 51%
    11:00 +28°C° 0 mm 8 mps 755 mmHg 46%
    12:00 +31°C° 0 mm 8 mps 756 mmHg 41%
    13:00 +31°C° 0 mm 8 mps 756 mmHg 42%
    14:00 +31°C° 0 mm 8 mps 756 mmHg 42%
    15:00 +30°C° 0 mm 7 mps 756 mmHg 42%
    16:00 +29°C° 0 mm 7 mps 756 mmHg 44%
    17:00 +28°C° 0 mm 6 mps 756 mmHg 46%
    18:00 +28°C° 0 mm 5 mps 756 mmHg 48%
    19:00 +27°C° 0 mm 5 mps 757 mmHg 49%
    20:00 +26°C° 0 mm 5 mps 757 mmHg 51%
    21:00 +25°C° 0 mm 5 mps 757 mmHg 53%
    22:00 +23°C° 0 mm 5 mps 758 mmHg 50%
    23:00 +23°C° 0 mm 6 mps 758 mmHg 47%

    27 August, Tuesday

    Time Temperature Precipitation Wind Pressure Humidity
    00:00 +22°C° 0 mm 6 mps 758 mmHg 45%
    01:00 +21°C° 0 mm 6 mps 758 mmHg 45%
    02:00 +21°C° 0 mm 6 mps 758 mmHg 46%
    03:00 +20°C° 0 mm 5 mps 758 mmHg 46%
    04:00 +19°C° 0 mm 5 mps 759 mmHg 48%
    05:00 +19°C° 0 mm 5 mps 759 mmHg 49%
    06:00 +17°C° 0 mm 5 mps 759 mmHg 50%
    07:00 +20°C° 0 mm 6 mps 759 mmHg 47%
    08:00 +21°C° 0 mm 6 mps 760 mmHg 44%
    09:00 +23°C° 0 mm 7 mps 760 mmHg 40%
    10:00 +24°C° 0 mm 7 mps 760 mmHg 36%
    11:00 +26°C° 0 mm 7 mps 760 mmHg 33%
    12:00 +27°C° 0 mm 7 mps 760 mmHg 29%
    13:00 +28°C° 0 mm 6 mps 760 mmHg 27%
    14:00 +28°C° 0 mm 6 mps 759 mmHg 25%
    15:00 +29°C° 0 mm 6 mps 759 mmHg 23%
    16:00 +28°C° 0 mm 6 mps 759 mmHg 22%
    17:00 +27°C° 0 mm 5 mps 759 mmHg 22%
    18:00 +27°C° 0 mm 5 mps 759 mmHg 22%
    19:00 +25°C° 0 mm 5 mps 759 mmHg 24%
    20:00 +22°C° 0 mm 5 mps 760 mmHg 26%
    21:00 +20°C° 0 mm 4 mps 760 mmHg 28%
    22:00 +20°C° 0 mm 5 mps 760 mmHg 29%
    23:00 +19°C° 0 mm 5 mps 760 mmHg 30%
    Show more